CST383X SBRF-SBVT

Flight info

Callsign CST383X
Flight time 1h 53m
Altitude 34000
Route MUDSI UN857 DAGEL
Aircraft B77L/H-SDE1E2E3FGHIJ2J3J4J5M1RWXY/LB1D1

Departure

Time 2026-05-04 17:41
Airport Recife/Guararapes - Gilberto Freyre International Airport (SBRF)

Arrival

Time 2026-05-04 19:34
Airport Eurico de Aguiar Salles International Airport (SBVT)
Time Latitude Longitude Altitude Speed Heading
2026-05-04 17:24 -8.12787 -34.91876 51 ft 0 kts 123°
2026-05-04 17:35 -8.12771 -34.91893 43 ft 6 kts 181°
2026-05-04 17:36 -8.12791 -34.91911 46 ft 7 kts 225°
2026-05-04 17:36 -8.12821 -34.91949 51 ft 7 kts 234°
2026-05-04 17:36 -8.12845 -34.91993 50 ft 7 kts 248°
2026-05-04 17:36 -8.12863 -34.92042 48 ft 8 kts 252°
2026-05-04 17:37 -8.12879 -34.92067 49 ft 2 kts 228°
2026-05-04 17:37 -8.12867 -34.92097 46 ft 6 kts 338°
2026-05-04 17:37 -8.12814 -34.92113 50 ft 11 kts 343°
2026-05-04 17:37 -8.12719 -34.92142 49 ft 16 kts 343°
2026-05-04 17:38 -8.12614 -34.92175 50 ft 18 kts 342°
2026-05-04 17:38 -8.12485 -34.92216 49 ft 20 kts 341°
2026-05-04 17:38 -8.12397 -34.92245 47 ft 20 kts 341°
2026-05-04 17:38 -8.12264 -34.92288 48 ft 20 kts 342°
2026-05-04 17:39 -8.11982 -34.92383 45 ft 22 kts 342°
2026-05-04 17:39 -8.11836 -34.92430 45 ft 22 kts 341°
2026-05-04 17:39 -8.11689 -34.92480 45 ft 22 kts 341°
2026-05-04 17:40 -8.11557 -34.92556 49 ft 22 kts 320°
2026-05-04 17:40 -8.11479 -34.92663 49 ft 14 kts 249°
2026-05-04 17:40 -8.11570 -34.92669 49 ft 20 kts 165°
2026-05-04 17:40 -8.11913 -34.92556 48 ft 103 kts 162°
2026-05-04 17:41 -8.12911 -34.92235 353 ft 177 kts 163°
2026-05-04 17:41 -8.14017 -34.91900 1911 ft 162 kts 165°
2026-05-04 17:41 -8.15226 -34.91806 2711 ft 191 kts 183°
2026-05-04 17:41 -8.16668 -34.91978 3061 ft 226 kts 186°
2026-05-04 17:42 -8.18282 -34.92211 3825 ft 240 kts 187°
2026-05-04 17:42 -8.19989 -34.92455 4734 ft 254 kts 187°
2026-05-04 17:42 -8.21740 -34.92701 5709 ft 261 kts 187°
2026-05-04 17:42 -8.23551 -34.92948 6740 ft 265 kts 186°
2026-05-04 17:43 -8.25406 -34.93193 7644 ft 272 kts 185°
2026-05-04 17:43 -8.27300 -34.93439 8626 ft 277 kts 185°
2026-05-04 17:43 -8.29240 -34.93686 9521 ft 286 kts 184°
2026-05-04 17:43 -8.31257 -34.93939 10276 ft 298 kts 185°
2026-05-04 17:44 -8.33400 -34.94205 10665 ft 325 kts 184°
2026-05-04 17:44 -8.35755 -34.94494 10891 ft 356 kts 185°
2026-05-04 17:44 -8.38308 -34.94809 11204 ft 381 kts 185°
2026-05-04 17:44 -8.40981 -34.95139 11860 ft 394 kts 186°
2026-05-04 17:45 -8.43741 -34.95481 12554 ft 405 kts 186°
2026-05-04 17:45 -8.46569 -34.95830 13371 ft 412 kts 186°
2026-05-04 17:45 -8.49424 -34.96183 14281 ft 413 kts 186°
2026-05-04 17:45 -8.52285 -34.96537 15161 ft 415 kts 186°
2026-05-04 17:46 -8.55163 -34.96893 16032 ft 417 kts 186°
2026-05-04 17:46 -8.58025 -34.97244 16813 ft 421 kts 186°
2026-05-04 17:46 -8.60950 -34.97604 17566 ft 425 kts 186°
2026-05-04 17:46 -8.63896 -34.97965 18338 ft 428 kts 186°
2026-05-04 17:47 -8.66873 -34.98331 18891 ft 434 kts 186°
2026-05-04 17:47 -8.69889 -34.98702 19441 ft 439 kts 185°
2026-05-04 17:47 -8.72933 -34.99076 20082 ft 441 kts 186°
2026-05-04 17:47 -8.75995 -34.99452 20721 ft 444 kts 185°
2026-05-04 17:48 -8.79072 -34.99831 21295 ft 448 kts 186°
2026-05-04 17:48 -8.82190 -35.00216 21841 ft 453 kts 185°
2026-05-04 17:48 -8.85332 -35.00602 22383 ft 457 kts 185°
2026-05-04 17:48 -8.88507 -35.00993 22931 ft 461 kts 186°
2026-05-04 17:49 -8.91704 -35.01387 23475 ft 465 kts 185°
2026-05-04 17:49 -8.94926 -35.01784 23918 ft 468 kts 185°
2026-05-04 17:49 -8.98170 -35.02184 24386 ft 471 kts 185°
2026-05-04 17:49 -9.01426 -35.02605 24881 ft 472 kts 188°
2026-05-04 17:50 -9.04637 -35.03343 25370 ft 475 kts 196°
2026-05-04 17:50 -9.07765 -35.04470 25836 ft 478 kts 202°
2026-05-04 17:50 -9.10766 -35.05942 26286 ft 481 kts 209°
2026-05-04 17:50 -9.13674 -35.07631 26742 ft 483 kts 210°
2026-05-04 17:51 -9.16588 -35.09351 27181 ft 486 kts 210°
2026-05-04 17:51 -9.19478 -35.11059 27627 ft 488 kts 210°
2026-05-04 17:51 -9.22417 -35.12787 28072 ft 490 kts 210°
2026-05-04 17:51 -9.25381 -35.14518 28509 ft 492 kts 210°
2026-05-04 17:52 -9.28358 -35.16249 28910 ft 495 kts 210°
2026-05-04 17:52 -9.31358 -35.17987 29300 ft 498 kts 210°
2026-05-04 17:52 -9.34373 -35.19730 29699 ft 500 kts 210°
2026-05-04 17:52 -9.37404 -35.21482 30057 ft 502 kts 210°
2026-05-04 17:53 -9.40436 -35.23234 30576 ft 499 kts 211°
2026-05-04 17:53 -9.43430 -35.24965 31244 ft 493 kts 211°
2026-05-04 17:53 -9.46402 -35.26684 31740 ft 491 kts 211°
2026-05-04 17:53 -9.49374 -35.28405 32232 ft 490 kts 211°
2026-05-04 17:54 -9.52323 -35.30113 32753 ft 487 kts 211°
2026-05-04 17:54 -9.55260 -35.31814 33342 ft 484 kts 211°
2026-05-04 17:54 -9.58178 -35.33505 33941 ft 480 kts 211°
2026-05-04 17:54 -9.61070 -35.35180 34420 ft 477 kts 211°
2026-05-04 17:55 -9.63947 -35.36848 34861 ft 476 kts 211°
2026-05-04 17:55 -9.66823 -35.38515 35230 ft 476 kts 211°
2026-05-04 17:55 -9.69692 -35.40179 35616 ft 475 kts 211°
2026-05-04 17:55 -9.72521 -35.41820 36017 ft 473 kts 211°
2026-05-04 17:56 -9.75369 -35.43472 36399 ft 471 kts 211°
2026-05-04 17:56 -9.78211 -35.45121 36793 ft 470 kts 211°
2026-05-04 17:56 -9.81053 -35.46770 37163 ft 469 kts 211°
2026-05-04 17:56 -9.83882 -35.48412 37526 ft 468 kts 211°
2026-05-04 17:57 -9.86704 -35.50050 37872 ft 467 kts 211°
2026-05-04 17:57 -9.89543 -35.51699 37949 ft 472 kts 211°
2026-05-04 17:57 -9.95267 -35.55025 37968 ft 474 kts 211°
2026-05-04 17:58 -10.00968 -35.58336 37979 ft 470 kts 211°
2026-05-04 17:58 -10.06637 -35.61631 37976 ft 468 kts 211°
2026-05-04 17:59 -10.12284 -35.64915 37981 ft 467 kts 211°
2026-05-04 18:00 -10.20713 -35.69820 37987 ft 468 kts 211°
2026-05-04 18:00 -10.26376 -35.73118 37986 ft 469 kts 211°
2026-05-04 18:01 -10.32052 -35.76424 37989 ft 471 kts 211°
2026-05-04 18:01 -10.37746 -35.79742 37984 ft 472 kts 211°
2026-05-04 18:02 -10.46301 -35.84736 37986 ft 474 kts 211°
2026-05-04 18:02 -10.52020 -35.88079 37994 ft 474 kts 211°
2026-05-04 18:03 -10.57708 -35.91405 37987 ft 475 kts 211°
2026-05-04 18:03 -10.63432 -35.94754 37987 ft 475 kts 211°
2026-05-04 18:04 -10.69158 -35.98105 37986 ft 475 kts 211°
2026-05-04 18:05 -10.77752 -36.03137 37990 ft 474 kts 211°
2026-05-04 18:05 -10.83467 -36.06486 37988 ft 473 kts 211°
2026-05-04 18:06 -10.92024 -36.11503 37993 ft 473 kts 211°
2026-05-04 18:06 -10.97717 -36.14842 37996 ft 472 kts 211°
2026-05-04 18:07 -11.03371 -36.18161 37987 ft 472 kts 211°
2026-05-04 18:07 -11.09058 -36.21501 37992 ft 472 kts 211°
2026-05-04 18:08 -11.14764 -36.24820 37992 ft 472 kts 209°
2026-05-04 18:08 -11.20606 -36.27890 37995 ft 472 kts 207°
2026-05-04 18:09 -11.32352 -36.33925 37997 ft 472 kts 208°
2026-05-04 18:10 -11.38203 -36.36984 37991 ft 472 kts 208°
2026-05-04 18:10 -11.44054 -36.40053 37997 ft 473 kts 208°
2026-05-04 18:11 -11.49861 -36.43099 37991 ft 473 kts 208°
2026-05-04 18:11 -11.55717 -36.46171 37992 ft 473 kts 208°
2026-05-04 18:12 -11.61565 -36.49240 37990 ft 473 kts 208°
2026-05-04 18:12 -11.67416 -36.52311 37998 ft 473 kts 208°
2026-05-04 18:13 -11.73271 -36.55386 38005 ft 473 kts 208°
2026-05-04 18:14 -11.82031 -36.59990 38002 ft 473 kts 208°
2026-05-04 18:14 -11.87892 -36.63072 37997 ft 474 kts 208°
2026-05-04 18:15 -11.99602 -36.69235 37999 ft 473 kts 208°
2026-05-04 18:16 -12.05466 -36.72323 38005 ft 474 kts 208°
2026-05-04 18:16 -12.11328 -36.75412 38004 ft 474 kts 208°
2026-05-04 18:17 -12.20081 -36.80027 38003 ft 473 kts 209°
2026-05-04 18:18 -12.28868 -36.84664 38009 ft 473 kts 209°
2026-05-04 18:18 -12.34729 -36.87759 38005 ft 473 kts 209°
2026-05-04 18:19 -12.43505 -36.92399 38007 ft 473 kts 209°
2026-05-04 18:19 -12.49353 -36.95494 38008 ft 473 kts 209°
2026-05-04 18:20 -12.55166 -36.98572 38010 ft 473 kts 209°
2026-05-04 18:20 -12.61016 -37.01671 38008 ft 473 kts 209°
2026-05-04 18:21 -12.66863 -37.04771 38008 ft 473 kts 209°
2026-05-04 18:21 -12.72715 -37.07875 38012 ft 472 kts 209°
2026-05-04 18:22 -12.78516 -37.10953 38004 ft 472 kts 209°
2026-05-04 18:22 -12.84352 -37.14052 38015 ft 472 kts 209°
2026-05-04 18:23 -12.90197 -37.17157 38020 ft 472 kts 209°
2026-05-04 18:23 -12.95057 -37.19740 38014 ft 472 kts 209°
2026-05-04 18:24 -13.01847 -37.23352 38014 ft 472 kts 209°
2026-05-04 18:24 -13.06708 -37.25938 38013 ft 472 kts 209°
2026-05-04 18:25 -13.13480 -37.29543 38016 ft 472 kts 209°
2026-05-04 18:25 -13.18357 -37.32143 38012 ft 471 kts 209°
2026-05-04 18:26 -13.24177 -37.35248 38021 ft 471 kts 209°
2026-05-04 18:26 -13.29953 -37.38331 38023 ft 471 kts 209°
2026-05-04 18:27 -13.35763 -37.41434 38021 ft 470 kts 209°
2026-05-04 18:27 -13.41576 -37.44540 38018 ft 470 kts 210°
2026-05-04 18:28 -13.47388 -37.47647 38016 ft 470 kts 210°
2026-05-04 18:28 -13.53153 -37.50731 38018 ft 470 kts 210°
2026-05-04 18:29 -13.58948 -37.53833 38021 ft 469 kts 210°
2026-05-04 18:29 -13.64745 -37.56937 38023 ft 469 kts 210°
2026-05-04 18:30 -13.73425 -37.61589 38021 ft 468 kts 210°
2026-05-04 18:31 -13.79205 -37.64689 38022 ft 468 kts 210°
2026-05-04 18:31 -13.84973 -37.67784 38019 ft 468 kts 210°
2026-05-04 18:32 -13.90704 -37.70860 38024 ft 467 kts 210°
2026-05-04 18:32 -13.96470 -37.73958 38029 ft 467 kts 210°
2026-05-04 18:33 -14.02223 -37.77050 38029 ft 466 kts 210°
2026-05-04 18:33 -14.07971 -37.80141 38030 ft 466 kts 210°
2026-05-04 18:34 -14.13710 -37.83229 38022 ft 465 kts 210°
2026-05-04 18:34 -14.19445 -37.86317 38043 ft 464 kts 210°
2026-05-04 18:35 -14.25172 -37.89402 38024 ft 464 kts 210°
2026-05-04 18:35 -14.30892 -37.92486 38022 ft 464 kts 210°
2026-05-04 18:36 -14.36608 -37.95569 38020 ft 463 kts 210°
2026-05-04 18:36 -14.42281 -37.98630 38040 ft 463 kts 210°
2026-05-04 18:37 -14.47991 -38.01713 38026 ft 462 kts 210°
2026-05-04 18:37 -14.53687 -38.04791 38031 ft 462 kts 210°
2026-05-04 18:38 -14.59382 -38.07870 38032 ft 461 kts 210°
2026-05-04 18:38 -14.65065 -38.10944 38039 ft 461 kts 210°
2026-05-04 18:39 -14.70746 -38.14019 38055 ft 461 kts 211°
2026-05-04 18:39 -14.76397 -38.17079 38038 ft 461 kts 211°
2026-05-04 18:40 -14.82077 -38.20157 38039 ft 460 kts 210°
2026-05-04 18:40 -14.87755 -38.23237 38040 ft 460 kts 210°
2026-05-04 18:41 -14.93423 -38.26313 38045 ft 460 kts 211°
2026-05-04 18:41 -14.99095 -38.29392 38043 ft 460 kts 211°
2026-05-04 18:42 -15.04761 -38.32467 38047 ft 460 kts 210°
2026-05-04 18:42 -15.10434 -38.35542 38047 ft 460 kts 210°
2026-05-04 18:43 -15.16106 -38.38617 38044 ft 460 kts 210°
2026-05-04 18:43 -15.21739 -38.41675 38059 ft 460 kts 211°
2026-05-04 18:44 -15.27414 -38.44758 38050 ft 460 kts 211°
2026-05-04 18:44 -15.33084 -38.47840 38049 ft 460 kts 211°
2026-05-04 18:45 -15.38755 -38.50925 38051 ft 459 kts 211°
2026-05-04 18:45 -15.44379 -38.53985 38055 ft 459 kts 211°
2026-05-04 18:46 -15.50048 -38.57073 38061 ft 459 kts 211°
2026-05-04 18:46 -15.55701 -38.60153 38063 ft 459 kts 211°
2026-05-04 18:47 -15.61357 -38.63238 38062 ft 459 kts 211°
2026-05-04 18:47 -15.67000 -38.66317 38068 ft 458 kts 211°
2026-05-04 18:48 -15.72644 -38.69399 38073 ft 458 kts 211°
2026-05-04 18:48 -15.78284 -38.72481 38063 ft 458 kts 211°
2026-05-04 18:49 -15.83884 -38.75543 38071 ft 457 kts 211°
2026-05-04 18:49 -15.89522 -38.78625 38070 ft 457 kts 211°
2026-05-04 18:50 -15.95159 -38.81709 38079 ft 457 kts 211°
2026-05-04 18:50 -16.00789 -38.84793 38074 ft 457 kts 211°
2026-05-04 18:51 -16.06384 -38.87859 38073 ft 457 kts 211°
2026-05-04 18:51 -16.12014 -38.90947 38073 ft 457 kts 211°
2026-05-04 18:52 -16.17640 -38.94036 38085 ft 457 kts 211°
2026-05-04 18:52 -16.23273 -38.97128 38095 ft 457 kts 211°
2026-05-04 18:53 -16.28928 -39.00166 38103 ft 457 kts 211°
2026-05-04 18:53 -16.34566 -39.03156 38103 ft 457 kts 211°
2026-05-04 18:54 -16.40234 -39.06178 38104 ft 457 kts 211°
2026-05-04 18:54 -16.45893 -39.09216 38114 ft 457 kts 212°
2026-05-04 18:55 -16.51490 -39.12350 38099 ft 457 kts 212°
2026-05-04 18:55 -16.59839 -39.17073 38099 ft 456 kts 212°
2026-05-04 18:56 -16.65426 -39.20218 38100 ft 456 kts 212°
2026-05-04 18:56 -16.71000 -39.23353 38108 ft 456 kts 212°
2026-05-04 18:57 -16.76586 -39.26497 38098 ft 455 kts 212°
2026-05-04 18:57 -16.82164 -39.29640 38101 ft 455 kts 212°
2026-05-04 18:58 -16.87729 -39.32778 38102 ft 454 kts 212°
2026-05-04 18:58 -16.93292 -39.35916 38114 ft 454 kts 212°
2026-05-04 18:59 -16.98852 -39.39055 38107 ft 454 kts 212°
2026-05-04 18:59 -17.04408 -39.42194 38111 ft 454 kts 212°
2026-05-04 19:00 -17.09932 -39.45310 38111 ft 454 kts 212°
2026-05-04 19:00 -17.15483 -39.48448 38113 ft 454 kts 212°
2026-05-04 19:01 -17.20711 -39.51406 38112 ft 454 kts 213°
2026-05-04 19:01 -17.26267 -39.54551 38108 ft 454 kts 213°
2026-05-04 19:02 -17.31807 -39.57688 38115 ft 453 kts 213°
2026-05-04 19:02 -17.37335 -39.60822 38115 ft 453 kts 213°
2026-05-04 19:03 -17.42877 -39.63965 38114 ft 453 kts 213°
2026-05-04 19:03 -17.48413 -39.67108 38113 ft 453 kts 213°
2026-05-04 19:04 -17.53948 -39.70252 38116 ft 452 kts 213°
2026-05-04 19:04 -17.59482 -39.73397 38114 ft 452 kts 213°
2026-05-04 19:05 -17.65018 -39.76546 38129 ft 452 kts 213°
2026-05-04 19:05 -17.70554 -39.79698 38116 ft 453 kts 213°
2026-05-04 19:06 -17.76087 -39.82849 38116 ft 453 kts 213°
2026-05-04 19:06 -17.81619 -39.86003 38121 ft 452 kts 213°
2026-05-04 19:07 -17.87149 -39.89158 38130 ft 452 kts 213°
2026-05-04 19:07 -17.92679 -39.92316 38116 ft 452 kts 213°
2026-05-04 19:08 -17.98209 -39.95474 38122 ft 452 kts 213°
2026-05-04 19:08 -18.04142 -39.97630 38129 ft 463 kts 193°
2026-05-04 19:09 -18.10553 -39.98469 38141 ft 465 kts 193°
2026-05-04 19:09 -18.16650 -39.99302 38133 ft 466 kts 194°
2026-05-04 19:10 -18.18486 -39.99566 38117 ft 467 kts 194°
2026-05-04 19:10 -18.19529 -39.99717 37964 ft 469 kts 194°
2026-05-04 19:10 -18.22811 -40.00206 37176 ft 478 kts 194°
2026-05-04 19:11 -18.24985 -40.00531 36714 ft 477 kts 193°
2026-05-04 19:11 -18.29375 -40.01189 35729 ft 476 kts 193°
2026-05-04 19:11 -18.31546 -40.01516 35176 ft 477 kts 193°
2026-05-04 19:11 -18.34848 -40.02013 34308 ft 480 kts 193°
2026-05-04 19:12 -18.38172 -40.02513 33344 ft 483 kts 193°
2026-05-04 19:12 -18.44835 -40.03513 31837 ft 479 kts 193°
2026-05-04 19:12 -18.48130 -40.04004 31211 ft 475 kts 193°
2026-05-04 19:13 -18.51386 -40.04491 30621 ft 471 kts 193°
2026-05-04 19:13 -18.54625 -40.04977 29987 ft 468 kts 193°
2026-05-04 19:13 -18.57798 -40.05455 29327 ft 464 kts 193°
2026-05-04 19:13 -18.60981 -40.05934 28703 ft 460 kts 193°
2026-05-04 19:14 -18.64132 -40.06409 28110 ft 456 kts 193°
2026-05-04 19:14 -18.67260 -40.06880 27517 ft 452 kts 193°
2026-05-04 19:14 -18.70363 -40.07348 26937 ft 448 kts 192°
2026-05-04 19:14 -18.73443 -40.07813 26362 ft 445 kts 192°
2026-05-04 19:15 -18.76496 -40.08273 25798 ft 442 kts 192°
2026-05-04 19:15 -18.79538 -40.08732 25223 ft 439 kts 192°
2026-05-04 19:15 -18.83537 -40.09336 24471 ft 437 kts 192°
2026-05-04 19:15 -18.85524 -40.09637 24099 ft 436 kts 192°
2026-05-04 19:16 -18.88520 -40.10090 23506 ft 434 kts 192°
2026-05-04 19:16 -18.91504 -40.10541 22872 ft 432 kts 192°
2026-05-04 19:16 -18.94466 -40.10988 22302 ft 428 kts 191°
2026-05-04 19:16 -18.97407 -40.11432 21749 ft 425 kts 191°
2026-05-04 19:17 -19.00318 -40.11873 21211 ft 421 kts 191°
2026-05-04 19:17 -19.03207 -40.12310 20683 ft 418 kts 191°
2026-05-04 19:17 -19.06084 -40.12745 20155 ft 416 kts 191°
2026-05-04 19:17 -19.08949 -40.13101 19625 ft 414 kts 187°
2026-05-04 19:18 -19.11822 -40.13288 19097 ft 413 kts 185°
2026-05-04 19:18 -19.14697 -40.13414 18480 ft 414 kts 184°
2026-05-04 19:18 -19.17581 -40.13536 17789 ft 415 kts 185°
2026-05-04 19:18 -19.20455 -40.13655 17225 ft 412 kts 184°
2026-05-04 19:19 -19.23304 -40.13771 16686 ft 408 kts 184°
2026-05-04 19:19 -19.26130 -40.13888 16174 ft 405 kts 183°
2026-05-04 19:19 -19.28931 -40.14006 15659 ft 401 kts 184°
2026-05-04 19:19 -19.31718 -40.14123 15150 ft 398 kts 183°
2026-05-04 19:20 -19.34478 -40.14239 14654 ft 396 kts 183°
2026-05-04 19:20 -19.37227 -40.14355 14126 ft 394 kts 183°
2026-05-04 19:20 -19.39955 -40.14470 13589 ft 392 kts 182°
2026-05-04 19:20 -19.42667 -40.14584 13067 ft 388 kts 182°
2026-05-04 19:21 -19.45359 -40.14697 12558 ft 385 kts 182°
2026-05-04 19:21 -19.48028 -40.14809 12057 ft 383 kts 182°
2026-05-04 19:21 -19.50687 -40.14920 11576 ft 381 kts 182°
2026-05-04 19:21 -19.53297 -40.15030 11104 ft 379 kts 182°
2026-05-04 19:22 -19.55909 -40.15140 10894 ft 370 kts 182°
2026-05-04 19:22 -19.58447 -40.15247 10717 ft 360 kts 182°
2026-05-04 19:22 -19.60929 -40.15351 10569 ft 351 kts 182°
2026-05-04 19:22 -19.63345 -40.15454 10410 ft 343 kts 181°
2026-05-04 19:23 -19.65702 -40.15552 10278 ft 335 kts 182°
2026-05-04 19:23 -19.68008 -40.15649 10089 ft 329 kts 182°
2026-05-04 19:23 -19.70275 -40.15745 9881 ft 323 kts 181°
2026-05-04 19:23 -19.72490 -40.15838 9718 ft 313 kts 182°
2026-05-04 19:24 -19.74619 -40.15927 9634 ft 300 kts 182°
2026-05-04 19:24 -19.76665 -40.16014 9471 ft 289 kts 182°
2026-05-04 19:24 -19.78645 -40.16097 9226 ft 281 kts 182°
2026-05-04 19:24 -19.80568 -40.16178 8876 ft 278 kts 182°
2026-05-04 19:25 -19.82494 -40.16259 8529 ft 275 kts 182°
2026-05-04 19:25 -19.84399 -40.16339 8194 ft 271 kts 182°
2026-05-04 19:25 -19.86247 -40.16417 7779 ft 261 kts 182°
2026-05-04 19:25 -19.88053 -40.16493 7157 ft 258 kts 182°
2026-05-04 19:26 -19.89837 -40.16568 6523 ft 254 kts 183°
2026-05-04 19:26 -19.91587 -40.16642 6190 ft 249 kts 182°
2026-05-04 19:26 -19.93332 -40.16716 5907 ft 250 kts 182°
2026-05-04 19:26 -19.95075 -40.16790 5651 ft 250 kts 182°
2026-05-04 19:27 -19.96805 -40.16863 5437 ft 247 kts 182°
2026-05-04 19:27 -19.98518 -40.16936 5106 ft 246 kts 182°
2026-05-04 19:27 -20.00185 -40.17006 4803 ft 239 kts 182°
2026-05-04 19:27 -20.01827 -40.17077 4507 ft 232 kts 181°
2026-05-04 19:28 -20.03405 -40.17144 4273 ft 222 kts 181°
2026-05-04 19:28 -20.04949 -40.17209 4026 ft 222 kts 181°
2026-05-04 19:28 -20.06488 -40.17274 3779 ft 220 kts 181°
2026-05-04 19:28 -20.07982 -40.17338 3677 ft 209 kts 181°
2026-05-04 19:29 -20.09376 -40.17397 3557 ft 191 kts 181°
2026-05-04 19:29 -20.10652 -40.17452 3471 ft 176 kts 180°
2026-05-04 19:29 -20.11860 -40.17566 3320 ft 173 kts 193°
2026-05-04 19:29 -20.12883 -40.18252 3214 ft 181 kts 222°
2026-05-04 19:30 -20.13581 -40.19392 3046 ft 187 kts 238°
2026-05-04 19:30 -20.14181 -40.20621 2819 ft 185 kts 236°
2026-05-04 19:30 -20.14804 -40.21802 2590 ft 181 kts 236°
2026-05-04 19:30 -20.15391 -40.22919 2374 ft 164 kts 235°
2026-05-04 19:31 -20.15912 -40.23914 2156 ft 146 kts 235°
2026-05-04 19:31 -20.16390 -40.24821 2006 ft 139 kts 235°
2026-05-04 19:31 -20.16867 -40.25720 1756 ft 142 kts 236°
2026-05-04 19:31 -20.17381 -40.26644 1645 ft 147 kts 233°
2026-05-04 19:32 -20.18036 -40.27471 1415 ft 144 kts 219°
2026-05-04 19:32 -20.18831 -40.28085 1234 ft 141 kts 207°
2026-05-04 19:32 -20.19737 -40.28487 1057 ft 141 kts 194°
2026-05-04 19:32 -20.20693 -40.28649 863 ft 137 kts 180°
2026-05-04 19:33 -20.21648 -40.28591 665 ft 140 kts 173°
2026-05-04 19:33 -20.22607 -40.28450 523 ft 140 kts 173°
2026-05-04 19:33 -20.23560 -40.28302 377 ft 138 kts 172°
2026-05-04 19:33 -20.24497 -40.28161 125 ft 133 kts 173°
2026-05-04 19:34 -20.25382 -40.28028 33 ft 110 kts 172°
2026-05-04 19:34 -20.25908 -40.27950 33 ft 47 kts 172°
2026-05-04 19:34 -20.26253 -40.27902 30 ft 44 kts 172°
2026-05-04 19:34 -20.26536 -40.27881 28 ft 32 kts 192°
2026-05-04 19:35 -20.26613 -40.27952 30 ft 6 kts 259°
2026-05-04 19:35 -20.26618 -40.27973 31 ft 9 kts 254°
2026-05-04 19:35 -20.26672 -40.28035 31 ft 12 kts 222°
2026-05-04 19:36 -20.26684 -40.28096 31 ft 4 kts 262°
2026-05-04 19:36 -20.26688 -40.28130 31 ft 5 kts 262°
2026-05-04 19:36 -20.26689 -40.28132 31 ft 0 kts 262°